TimeEDT,TemperatureF,Dew PointF,Humidity,Sea Level PressureIn,VisibilityMPH,Wind Direction,Wind SpeedMPH,Gust SpeedMPH,PrecipitationIn,Events,Conditions,WindDirDegrees,DateUTC
12:05 AM,67.3,63.5,88,29.98,10.0,Calm,Calm,-,N/A,,Clear,0,2013-09-08 04:05:00
12:25 AM,67.3,63.5,88,29.98,10.0,Calm,Calm,-,N/A,,Clear,0,2013-09-08 04:25:00
12:45 AM,67.5,63.9,88,29.98,10.0,Calm,Calm,-,N/A,,Clear,0,2013-09-08 04:45:00
1:05 AM,67.3,63.9,89,29.98,10.0,Calm,Calm,-,N/A,,Clear,0,2013-09-08 05:05:00
1:25 AM,66.4,63.9,92,29.98,10.0,Calm,Calm,-,N/A,,Clear,0,2013-09-08 05:25:00
1:45 AM,66.4,64.4,93,29.97,10.0,Calm,Calm,-,N/A,,Clear,0,2013-09-08 05:45:00
2:05 AM,66.4,64.9,95,29.97,10.0,Calm,Calm,-,N/A,,Clear,0,2013-09-08 06:05:00
2:25 AM,66.2,64.8,95,29.97,10.0,Calm,Calm,-,N/A,,Clear,0,2013-09-08 06:25:00
2:45 AM,66.4,65.3,96,29.96,10.0,Calm,Calm,-,N/A,,Clear,0,2013-09-08 06:45:00
3:05 AM,66.9,65.3,95,29.96,10.0,Calm,Calm,-,N/A,,Clear,0,2013-09-08 07:05:00
3:25 AM,66.4,65.7,98,29.95,10.0,Calm,Calm,-,N/A,,Clear,0,2013-09-08 07:25:00
3:45 AM,66.4,65.5,97,29.95,10.0,Calm,Calm,-,N/A,,Clear,0,2013-09-08 07:45:00
4:05 AM,67.1,66.2,97,29.95,10.0,Calm,Calm,-,N/A,,Clear,0,2013-09-08 08:05:00
4:25 AM,67.5,66.6,97,29.95,10.0,Calm,Calm,-,N/A,,Clear,0,2013-09-08 08:25:00
4:45 AM,68.7,67.1,95,29.95,10.0,Calm,Calm,-,N/A,Rain,Light Rain,0,2013-09-08 08:45:00
5:05 AM,68.0,67.8,99,29.95,10.0,Calm,Calm,-,N/A,,Scattered Clouds,0,2013-09-08 09:05:00
5:25 AM,68.0,67.6,99,29.95,10.0,Calm,Calm,-,N/A,Rain,Light Rain,0,2013-09-08 09:25:00
5:45 AM,66.9,66.9,100,29.94,10.0,Calm,Calm,-,N/A,Rain,Light Rain,0,2013-09-08 09:45:00
5:50 AM,66.2,66.2,100,29.94,10.0,Calm,Calm,-,N/A,,Mostly Cloudy,0,2013-09-08 09:50:00
6:05 AM,66.7,66.7,100,29.95,10.0,Calm,Calm,-,N/A,,Scattered Clouds,0,2013-09-08 10:05:00
6:25 AM,67.1,67.1,100,29.95,10.0,Calm,Calm,-,N/A,,Mostly Cloudy,0,2013-09-08 10:25:00
6:45 AM,66.7,66.7,100,29.95,10.0,Calm,Calm,-,N/A,,Mostly Cloudy,0,2013-09-08 10:45:00
7:05 AM,67.3,67.3,100,29.95,10.0,Calm,Calm,-,N/A,,Scattered Clouds,0,2013-09-08 11:05:00
7:25 AM,67.5,67.5,100,29.95,10.0,Calm,Calm,-,N/A,,Clear,0,2013-09-08 11:25:00
7:43 AM,68.2,68.2,100,29.95,10.0,Calm,Calm,-,N/A,,Scattered Clouds,0,2013-09-08 11:43:00
7:48 AM,68.0,68.0,100,29.95,10.0,Calm,Calm,-,N/A,,Overcast,0,2013-09-08 11:48:00
8:57 AM,73.4,68.0,83,29.95,10.0,WNW,4.6,-,N/A,,Scattered Clouds,290,2013-09-08 12:57:00
9:50 AM,78.8,64.4,61,29.94,10.0,Calm,Calm,-,N/A,,Scattered Clouds,0,2013-09-08 13:50:00
10:50 AM,82.4,62.6,51,29.94,10.0,WNW,5.8,-,N/A,,Clear,290,2013-09-08 14:50:00
11:45 AM,84.2,62.6,48,29.93,10.0,WNW,9.2,-,N/A,,Clear,290,2013-09-08 15:45:00
12:06 PM,84.9,63.5,48,29.93,10.0,Calm,Calm,-,N/A,,Clear,0,2013-09-08 16:06:00
12:17 PM,83.8,63.9,51,29.93,10.0,Calm,Calm,-,N/A,,Clear,0,2013-09-08 16:17:00
12:50 PM,84.2,66.2,55,29.93,10.0,West,8.1,-,N/A,,Clear,280,2013-09-08 16:50:00
1:45 PM,86.0,66.2,51,29.92,10.0,NW,6.9,-,N/A,,Partly Cloudy,320,2013-09-08 17:45:00
2:53 PM,87.8,66.2,49,29.91,10.0,NW,9.2,-,N/A,,Partly Cloudy,320,2013-09-08 18:53:00
3:53 PM,86.0,66.2,51,29.91,10.0,NNW,5.8,-,N/A,,Partly Cloudy,330,2013-09-08 19:53:00
4:53 PM,86.0,64.4,48,29.91,10.0,NNW,9.2,-,N/A,,Partly Cloudy,330,2013-09-08 20:53:00
5:53 PM,84.2,66.2,55,29.93,10.0,North,6.9,-,N/A,,Scattered Clouds,10,2013-09-08 21:53:00
6:53 PM,80.6,66.2,61,29.95,10.0,North,5.8,-,N/A,,Mostly Cloudy,10,2013-09-08 22:53:00
7:53 PM,75.2,66.2,73,29.99,10.0,NNE,4.6,-,N/A,,Scattered Clouds,20,2013-09-08 23:53:00
8:53 PM,73.4,66.2,78,30.01,10.0,NNE,4.6,-,N/A,,Scattered Clouds,20,2013-09-09 00:53:00
11:07 PM,70.3,63.1,78,30.07,10.0,Calm,Calm,-,N/A,,Clear,0,2013-09-09 03:07:00
11:27 PM,69.6,62.2,77,30.07,10.0,Calm,Calm,-,N/A,,Clear,0,2013-09-09 03:27:00
11:47 PM,68.2,60.3,76,30.08,10.0,Calm,Calm,-,N/A,,Clear,0,2013-09-09 03:47:00